EHBKEHGG

Guest
Details From EHBK - Maastricht
To EHGG - Eelde
Flight Number -
Tags Generated Routegen
Created
Modified
Stats Distance 137 nm / 254 km
Max Altitude 1,500 ft / 457 m
Waypoints 5
Social Downloads 21
Likes 0
Share

Download

Looking for another format? Having issues loading an existing format? Contact us
Advertisement - Login to hide

Notes

Departing runway 3 EHBK. Arriving runway 5 EHGG.

Route

EHBK +50.98_+005.84 +51.76_+006.04 +53.03_+006.38 EHGG

ID Type Via Altitude (ft/m) Position (lat/lon) Dist (leg/tot) Name
O EHBK APT - 1,500 / 457 50.92077 / 5.77923 - / 0 nm
+50.98_+005.84 DME - 1,500 / 457 50.98175 / 5.84110 4 / 4 nm
+51.76_+006.04 DME - 1,500 / 457 51.76018 / 6.04077 47 / 51 nm
+53.03_+006.38 DME - 1,500 / 457 53.02532 / 6.38004 76 / 128 nm
O EHGG APT - 0 / 0 53.11497 / 6.56915 8 / 137 nm

Altitude Profile

Advertisement - Login to hide

EHBK

Details ICAO EHBK (MST)
Name Maastricht Aachen
Region Netherlands
Timezone Europe/Amsterdam (UTC+2.0)
Stats Elevation 375 ft / 114 m (AMSL)
Location 50.915800° 5.776940°
Runways 1
Magnetic Variation 1.971° E

METAR

EHBK 131325Z AUTO 31003KT 210V010 9999 BKN048 09/M03 Q1031 NOSIG

Decode

TAF

TAF EHBK 131113Z 1312/1418 33005KT 9999 SCT030 PROB40 1402/1408 4000 BR MIFG

Decode

Departure Runways

ID Width Length Bearing (true/mag) Surface Threshold Overrun Markings Lighting
03 148 ft / 45 m 9,019 ft / 2,749 m 32.54° / 30.57° ASPHALT 810 ft / 247 m 0 ft / 0 m PREC-APP CENTERLINE EDGE THRESHOLD ALSF-I REIL-OMNI
21 148 ft / 45 m 9,019 ft / 2,749 m 212.56° / 210.59° ASPHALT 814 ft / 248 m 0 ft / 0 m PREC-APP CENTERLINE EDGE THRESHOLD ALSF-I TDZ REIL-OMNI

EHGG

Details ICAO EHGG (GRQ)
Name Groningen Eelde Airport
Region Netherlands
Timezone Europe/Amsterdam (UTC+2.0)
Stats Elevation 17 ft / 5 m (AMSL)
Location 53.118000° 6.575580°
Runways 1
Magnetic Variation 2.166° E

METAR

EHGG 131325Z AUTO 31015KT 280V350 9999 FEW034 07/00 Q1031 NOSIG

Decode

TAF

Not found

Destination Runways

ID Width Length Bearing (true/mag) Surface Threshold Overrun Markings Lighting
05 148 ft / 45 m 8,185 ft / 2,495 m 51.78° / 49.62° ASPHALT 0 ft / 0 m 98 ft / 30 m PREC-APP CENTERLINE EDGE THRESHOLD SALS
23 148 ft / 45 m 8,185 ft / 2,495 m 231.81° / 229.64° ASPHALT 0 ft / 0 m 98 ft / 30 m PREC-APP CENTERLINE EDGE THRESHOLD ALSF-I

Approach Navaids

Runway Type Ident Frequency Range Bearing (true/mag) Slope Elevation
23 GS GRO 109.90 MHz 10 nm / 19 km 231.80° / 229.63 ° 3.00° 17 ft / 5 m (AMSL)
23 LOC-ILS GRO 109.90 MHz 18 nm / 33 km 231.80° / 229.63 ° - 17 ft / 5 m (AMSL)

Popular Alternatives